Temp
9 9 9 9 9 9 9 9 9 9 9 10 10 10 11 13 15 15 13 13 14 14 15 17 17 18 18 17 16 14 14 15 18 16 19 17 18 17 17 17 17 16 15 16 18
9 9 9 9 9 9 9 9 9 11 11 10 10 11 12 12 14 14 13 14 14 14 15 14 15 15 15 17 15 14 13 16 17 16 18 17 18 17 18 17 17 16 15 16 17
9 9 9 9 9 9 9 9 9 10 11 10 10 13 13 13 13 14 14 14 14 15 15 15 14 15 17 17 17 15 16 17 17 17 16 17 17 17 16 17 16 16 15 16 16
9 9 10 10 9 10 11 11 11 12 9 10 12 13 13 13 18 14 14 15 15 16 16 15 15 16 16 17 17 17 17 17 17 16 17 17 17 17 16 18 17 15 14 15 14
9 9 11 12 11 12 14 12 12 12 11 12 13 13 13 14 13 14 14 15 15 15 14 14 15 15 17 16 17 17 17 16 16 16 16 16 16 16 16 16 14 14 15 14 14
10 12 13 13 14 14 14 13 14 13 13 13 13 12 12 16 14 14 14 14 14 14 13 13 14 14 15 16 16 16 16 16 16 16 16 17 16 16 17 14 14 14 14 14 13
11 13 14 14 15 14 13 14 14 14 14 14 12 12 12 14 14 14 14 14 14 14 13 13 13 14 15 16 15 15 17 16 16 16 16 16 16 15 16 14 15 15 14 14 13
11 13 14 14 14 14 14 14 14 14 14 13 12 12 13 14 14 14 14 14 14 14 14 14 14 14 15 15 13 16 14 15 16 15 15 16 16 17 14 14 14 14 14 13 14
11 13 13 13 13 14 14 14 14 14 14 13 12 12 14 14 14 13 13 13 13 14 14 14 14 12 14 13 9 11 12 15 16 14 15 15 16 15 14 14 14 13 13 13 13
11 11 11 11 11 12 14 14 13 14 14 13 12 13 13 11 12 13 13 13 12 13 13 13 10 11 10 10 10 14 15 15 15 15 15 14 13 15 15 14 13 13 12 13 13
11 11 11 11 12 12 13 14 10 12 11 11 11 11 11 12 12 13 12 12 12 12 13 11 10 9 12 12 14 15 15 16 16 15 15 13 13 14 15 14 13 12 11 12 12
11 11 11 11 11 11 12 8 8 8 7 10 9 10 11 11 11 12 12 13 13 12 13 11 12 13 13 13 13 14 15 14 15 15 14 14 13 13 13 13 13 12 11 11 12
11 10 11 11 12 11 9 8 8 8 7 9 11 11 12 12 11 11 11 11 12 13 12 12 14 13 14 14 13 14 13 14 15 14 13 12 13 14 14 13 12 12 12 11 11
11 10 10 12 11 9 9 9 9 8 6 9 12 12 12 11 12 12 11 11 12 12 12 12 12 13 14 14 12 15 13 14 14 11 11 11 11 13 13 13 12 11 10 10 11
11 10 10 10 9 9 9 9 9 8 12 11 12 12 11 12 12 11 11 11 11 12 11 12 12 12 13 14 14 13 11 11 11 7 8 11 8 12 12 13 12 11 10 9 10
11 10 10 10 9 9 9 9 9 9 11 11 12 12 12 11 12 11 11 11 11 11 11 11 11 12 13 12 12 10 11 9 6 6 6 11 11 12 11 12 12 10 9 9 9
10 9 9 9 9 9 9 9 11 11 13 13 12 12 12 12 12 11 11 11 10 10 11 10 11 11 13 12 12 12 10 6 7 4 10 9 8 11 12 12 12 10 9 9 9
9 8 8 9 9 9 9 11 12 13 11 13 12 12 12 12 12 11 11 10 10 10 8 7 8 11 12 12 11 12 11 7 7 7 8 9 9 12 11 10 11 11 10 9 8
7 7 7 9 8 9 9 9 11 11 12 11 12 11 11 12 12 11 10 10 10 9 9 8 11 11 11 12 12 11 9 10 8 8 6 9 10 11 10 10 9 10 9 9 9
5 6 7 8 8 8 8 8 11 11 11 11 12 11 10 10 11 9 10 10 11 9 10 10 10 11 11 12 11 11 10 9 8 8 8 8 9 9 11 10 10 9 9 9 9
6 6 6 7 7 7 7 8 9 10 11 11 10 11 10 10 9 9 10 11 11 10 10 10 9 10 11 10 9 10 10 9 8 6 5 6 10 9 10 10 9 9 9 9 9
6 7 6 6 5 6 7 7 10 9 10 10 10 10 9 9 9 8 10 10 10 10 10 10 8 8 9 10 10 10 9 9 7 8 5 4 8 11 8 9 9 9 9 9 8
6 6 6 6 6 6 6 7 8 8 9 9 9 9 9 9 10 8 10 9 9 9 9 9 8 6 9 9 10 10 9 9 8 7 7 6 9 10 9 9 10 9 8 8 8
4 5 4 6 6 5 6 7 8 8 9 9 9 9 9 9 9 9 9 9 9 9 10 9 7 8 7 10 9 10 10 10 9 6 8 9 9 10 11 9 9 8 8 7 7
4 5 6 6 6 6 6 6 7 7 8 8 8 8 9 8 8 8 8 8 8 8 7 7 8 6 7 8 8 9 9 9 8 8 8 10 8 10 11 9 8 8 6 7 7
4 5 5 6 6 6 6 6 7 7 7 7 7 8 8 7 8 7 7 7 8 7 8 6 7 8 7 7 6 7 8 7 8 8 7 8 9 9 11 9 8 7 6 7 8
4 4 5 5 6 6 6 6 6 6 6 6 7 7 7 7 7 6 6 5 6 6 6 7 6 6 6 6 7 7 7 8 9 7 9 8 9 10 10 9 9 7 6 7 7
Height
833 831 828 824 822 820 816 814 810 808 805 801 799 795 792 789 787 786 788 789 786 784 779 777 777 777 777 778 780 783 802 805 789 796 784 781 781 781 781 783 782 784 786 784 786
833 831 829 825 821 819 816 812 809 806 803 801 798 794 791 789 789 789 791 789 786 783 781 779 780 779 780 780 783 792 805 793 783 784 783 782 781 783 783 784 787 787 785 785 787
833 831 827 824 821 819 816 812 809 806 803 800 796 792 790 789 789 790 789 788 785 782 781 780 781 781 781 781 783 788 795 785 782 781 781 782 782 783 787 788 786 788 787 787 789
832 829 826 823 820 817 814 811 808 805 802 798 794 791 789 788 794 790 789 787 784 782 781 780 781 783 785 785 782 788 783 785 784 783 782 783 781 783 786 782 780 783 784 787 790
832 829 825 821 819 816 813 809 806 803 800 797 794 791 790 790 793 791 789 787 785 782 782 781 782 785 786 785 783 786 784 783 785 784 784 783 783 784 785 782 781 784 786 788 791
831 828 825 821 818 814 811 807 804 800 797 796 794 793 791 792 792 790 788 786 785 784 783 781 783 785 786 786 787 786 786 786 784 785 783 786 786 781 781 783 785 786 788 790 792
831 828 825 821 817 813 809 805 802 799 797 795 795 794 794 795 792 791 789 786 786 785 785 784 783 784 785 787 786 787 788 787 786 785 786 785 789 786 779 784 786 788 789 791 792
831 828 825 821 818 813 808 803 799 797 797 796 795 795 795 794 793 792 790 788 786 785 786 785 783 783 786 787 792 791 795 797 786 785 787 789 792 779 781 785 788 789 790 792 793
831 827 824 821 817 812 807 802 798 795 795 795 795 795 795 793 793 791 792 791 787 785 785 785 785 789 789 799 818 807 813 799 789 789 786 791 788 783 783 785 788 789 791 793 794
831 828 824 821 817 812 806 800 798 796 793 794 795 799 795 798 794 792 790 790 789 787 787 787 796 801 805 809 828 804 800 796 794 789 790 791 794 785 783 785 787 789 791 792 794
830 827 825 821 817 813 806 800 802 801 797 801 800 800 798 795 794 792 790 789 789 790 793 794 808 815 798 798 794 794 798 793 788 789 792 793 792 787 782 786 789 790 792 792 793
830 828 825 822 818 815 811 814 822 821 815 802 803 801 797 795 797 794 792 791 792 796 794 803 800 794 793 794 796 795 795 800 790 789 792 792 789 783 783 782 785 787 789 790 792
829 827 825 823 819 818 818 820 821 820 822 806 801 800 799 797 798 798 797 796 797 796 797 799 794 793 791 792 796 795 798 795 796 794 796 797 793 782 778 780 781 784 785 786 788
827 826 825 823 823 821 822 822 821 820 832 814 800 800 799 797 796 795 797 800 797 800 800 800 795 793 791 792 801 792 794 793 793 812 818 808 816 787 781 779 779 781 785 785 788
825 825 824 823 824 824 825 822 820 821 830 806 799 798 798 800 800 796 795 795 798 799 804 799 797 795 794 794 793 797 798 801 807 829 829 809 837 788 783 780 777 779 782 785 788
822 822 822 823 823 823 824 822 821 834 829 806 798 797 798 799 797 796 796 797 799 800 800 800 797 795 793 796 796 801 801 812 829 838 851 809 814 788 789 773 774 778 781 782 786
819 820 820 821 822 823 823 823 828 827 804 799 799 797 796 797 799 801 800 803 807 810 800 801 795 793 791 794 795 798 808 852 851 872 824 821 825 787 775 774 771 776 781 784 787
814 815 816 819 821 822 823 825 822 803 807 797 798 796 798 794 797 799 804 808 807 809 821 824 822 794 791 792 797 798 803 839 853 849 828 815 814 781 777 779 774 776 782 787 791
808 811 814 814 819 821 824 831 810 804 795 800 800 802 798 794 790 798 804 805 802 808 814 820 802 793 793 792 792 802 812 804 824 830 848 810 799 779 778 778 779 779 785 789 792
803 810 811 812 815 820 827 818 802 796 793 795 797 798 801 798 798 801 800 793 792 801 800 804 808 799 797 795 796 795 801 820 824 831 834 821 806 798 781 781 784 786 786 789 792
803 808 806 810 814 819 820 809 797 793 790 794 797 795 799 798 802 804 795 790 790 795 798 804 811 807 801 804 803 804 803 810 818 829 851 841 797 789 781 781 786 785 787 788 791
800 804 803 807 817 815 809 805 791 789 789 791 792 794 797 796 799 804 797 791 791 792 798 800 813 816 804 798 799 796 800 803 824 820 838 845 813 775 782 778 780 785 787 788 790
796 801 801 805 806 805 802 796 791 791 790 791 791 791 792 793 795 797 790 793 792 793 798 800 811 831 808 803 799 798 797 796 805 812 816 834 794 775 775 779 781 785 789 791 791
795 799 804 800 802 803 799 795 791 789 788 790 792 793 794 794 794 795 794 794 794 795 792 796 809 808 818 796 798 796 794 794 798 818 803 795 790 777 773 780 783 786 790 792 793
787 789 789 794 793 794 798 797 790 793 789 791 794 793 793 798 797 798 797 797 797 799 800 800 804 812 807 807 802 798 796 799 800 797 798 785 793 781 774 778 782 785 791 793 794
780 783 788 786 788 790 791 792 790 792 791 787 792 792 796 797 791 799 796 800 795 801 799 804 803 801 805 807 808 804 798 799 795 791 794 789 782 775 768 773 781 783 788 791 792
774 775 777 783 784 788 786 786 790 790 792 791 783 793 798 796 794 798 799 802 804 804 806 803 806 810 810 808 802 799 788 784 781 787 781 786 775 770 770 770 771 779 783 788 790
Wind_Speed
19 19 19 19 19 19 20 21 21 22 21 21 21 21 22 22 11 5 5 8 11 16 15 11 2 2 1 2 3 3 4 2 4 5 3 0 2 1 0 4 2 3 4 2 17
18 19 20 20 21 21 21 22 22 21 21 21 22 20 19 17 6 8 7 12 12 12 11 12 5 8 2 1 2 4 3 7 3 4 3 2 1 3 2 2 3 3 4 11 14
18 19 19 21 22 22 22 23 22 22 22 22 22 19 16 10 1 1 12 13 12 9 6 5 4 1 0 1 1 2 3 2 2 2 5 4 3 0 5 2 4 7 6 4 7
18 19 21 21 22 23 24 24 23 23 22 22 19 15 11 2 2 4 13 13 11 8 3 3 3 2 1 1 1 1 1 1 2 3 1 5 4 1 3 3 3 9 7 5 6
18 19 20 21 23 25 24 25 25 26 24 19 14 11 3 2 2 9 14 11 8 5 5 2 3 1 1 1 0 1 1 1 2 2 2 1 2 1 4 1 5 7 6 7 5
17 19 21 21 22 24 25 26 27 27 18 13 10 8 2 1 4 10 13 7 8 8 3 4 2 2 1 1 2 1 1 1 0 1 1 1 2 3 2 5 6 7 6 6 7
17 19 20 22 24 25 25 27 28 18 11 8 7 5 2 1 3 11 13 4 7 6 2 2 2 2 1 1 1 1 2 3 3 2 1 2 4 5 3 6 7 6 5 5 6
18 19 19 21 24 25 25 26 21 10 9 6 5 3 1 3 5 13 14 2 9 2 2 1 1 2 2 0 6 2 4 2 2 4 1 2 7 3 6 9 8 6 5 6 5
17 18 20 22 24 24 25 28 10 4 7 5 2 2 1 4 5 11 11 8 9 4 1 1 2 3 4 4 5 5 2 3 4 5 3 1 5 4 3 7 8 7 6 6 5
18 19 20 23 25 24 25 20 5 4 5 3 1 2 4 4 9 10 7 8 2 4 3 5 5 3 3 4 4 3 2 4 4 1 0 2 7 4 2 5 8 7 7 7 7
18 19 20 23 24 21 25 6 8 4 8 1 4 2 2 9 3 6 7 6 3 5 2 3 5 3 6 5 2 2 2 3 1 0 2 6 6 7 3 3 6 6 7 7 7
16 17 19 21 19 16 12 7 2 2 7 2 5 4 5 2 3 5 11 3 3 1 1 5 2 1 2 2 3 4 1 5 2 1 2 3 9 8 6 6 7 8 8 8 5
14 14 16 18 12 8 13 6 3 1 1 6 3 2 3 2 1 5 6 2 4 1 1 4 2 4 1 1 2 2 4 3 4 1 2 4 7 4 3 2 3 6 5 6 10
13 13 14 15 3 7 3 6 4 1 4 6 1 2 1 1 1 1 3 1 4 1 1 2 3 2 1 1 4 2 1 2 1 3 3 4 4 5 4 5 3 5 7 9 8
13 11 11 8 6 2 4 7 5 0 5 3 2 1 1 0 2 2 1 2 2 1 3 3 2 3 0 2 1 3 3 4 3 4 4 2 3 7 1 5 6 5 7 7 8
14 9 8 5 4 3 5 5 1 5 7 2 1 1 1 1 1 2 2 3 1 1 1 4 3 2 1 1 2 6 4 6 4 3 2 4 5 5 5 6 4 4 6 9 9
14 10 7 5 1 2 4 1 3 4 3 3 4 2 1 2 2 1 2 2 2 2 1 3 2 2 2 2 2 3 5 2 4 3 5 3 0 7 5 4 5 9 8 8 7
14 11 8 10 4 1 0 3 5 5 6 2 2 2 4 6 3 1 1 3 2 2 2 2 6 4 2 3 5 2 4 5 6 3 4 2 5 5 4 7 4 5 6 6 6
17 10 8 9 10 5 3 3 7 7 4 5 1 3 4 3 4 2 5 4 5 7 5 3 4 1 1 1 3 3 2 4 5 1 2 4 6 8 3 3 5 9 7 7 6
16 7 6 12 14 7 2 7 6 5 4 4 9 7 6 5 5 6 5 4 3 7 1 3 2 1 1 1 2 2 5 3 2 2 3 4 4 5 6 3 2 6 7 6 4
10 3 6 19 16 3 4 7 6 6 5 7 6 4 6 5 6 4 4 1 3 4 3 4 2 3 2 4 7 2 1 3 3 4 4 1 5 6 5 7 7 7 6 7 6
8 2 14 26 2 3 4 5 4 5 2 4 3 6 7 6 5 5 6 4 2 5 6 4 4 4 8 3 3 3 6 6 4 4 1 3 6 3 7 7 9 7 6 5 5
5 1 12 9 4 5 3 4 3 4 4 5 6 5 3 6 3 6 3 2 1 4 6 5 2 1 6 3 1 3 4 3 4 3 6 3 5 1 4 5 5 7 6 5 4
3 3 2 3 1 2 4 4 4 0 0 1 1 1 2 3 2 1 2 2 2 2 3 1 4 5 6 2 3 3 3 2 4 3 4 7 6 7 3 5 5 6 5 5 3
3 3 3 5 5 7 5 2 4 5 2 2 1 4 4 4 2 4 2 1 3 4 2 3 4 3 4 5 3 4 5 5 7 6 6 3 7 6 6 8 7 6 6 5 5
5 4 2 2 3 10 8 5 8 3 6 4 4 3 4 4 4 4 4 2 1 2 2 3 1 2 5 6 7 7 8 9 12 9 8 7 14 8 6 6 6 8 8 6 4
5 4 3 6 5 4 4 6 5 4 3 2 6 5 3 4 2 3 3 3 3 3 2 3 3 2 3 3 5 8 12 15 8 4 4 8 8 5 5 7 9 8 8 7 5
Wind_Direction
351 348 346 347 346 344 343 341 339 338 336 337 338 340 339 343 356 14 38 338 330 331 337 340 46 356 360 86 86 119 69 223 230 163 267 202 130 13 133 104 48 21 145 243 147
348 347 346 347 348 347 343 339 341 342 342 338 335 335 335 343 359 48 2 338 334 331 349 18 359 343 26 74 25 85 120 220 203 188 224 184 129 175 111 89 41 47 42 126 141
345 342 345 347 347 344 341 339 340 340 338 334 330 333 335 344 55 354 351 342 338 339 338 345 323 322 285 96 184 151 203 266 256 236 186 158 116 238 127 232 198 171 153 124 136
340 340 344 347 345 343 342 342 342 340 333 331 334 337 337 43 341 345 346 346 346 346 3 31 24 37 14 224 172 283 278 272 336 328 157 162 122 119 207 237 250 167 151 140 146
340 338 344 347 345 343 345 343 340 335 328 331 340 346 6 60 334 341 340 344 347 10 46 57 72 45 285 277 106 181 264 56 358 19 49 111 104 145 264 18 115 131 133 142 150
338 341 344 346 346 343 342 340 340 333 330 338 346 347 29 71 351 349 346 351 7 14 25 37 107 104 279 322 165 330 4 350 270 281 14 313 290 109 229 135 115 137 158 164 159
337 342 344 345 342 341 340 337 338 336 339 351 356 356 28 178 20 6 359 360 8 357 2 50 86 134 33 350 347 121 321 317 229 205 279 137 264 236 159 164 157 167 169 160 162
334 339 344 342 339 337 337 334 335 337 345 352 3 357 158 346 334 356 1 338 351 26 334 4 20 104 68 190 18 39 49 0 285 152 11 76 271 343 171 159 183 183 175 160 157
334 338 341 341 341 338 336 329 325 326 340 344 352 13 301 336 0 341 348 334 336 357 81 20 51 83 47 78 15 4 233 213 311 212 118 143 277 346 150 170 178 181 170 162 143
334 337 340 343 342 342 339 327 311 333 329 283 321 33 13 314 316 322 343 336 324 322 35 48 41 62 42 82 221 254 256 254 258 260 203 175 266 297 178 168 189 182 177 170 173
330 336 338 344 344 348 346 357 11 352 31 260 267 244 260 323 311 347 345 342 340 42 83 16 70 211 226 191 126 116 216 274 210 189 221 232 255 270 193 221 219 206 193 183 186
326 331 337 341 347 359 9 63 58 261 316 277 270 276 264 11 349 332 359 68 31 76 64 25 220 258 263 196 205 220 263 282 295 138 173 331 273 243 214 216 209 209 205 184 177
320 326 334 340 348 11 50 61 335 233 224 302 259 266 278 50 30 310 13 351 55 48 46 160 177 320 211 209 172 215 187 223 224 37 35 336 295 237 215 220 286 225 214 169 177
308 318 329 340 359 3 33 1 351 324 48 285 323 331 17 157 68 97 16 59 31 28 343 246 310 352 341 273 129 241 317 258 165 86 235 45 271 288 233 238 242 230 194 174 174
293 303 319 342 330 352 323 327 319 234 343 260 234 234 354 19 311 26 54 22 123 189 81 267 12 28 257 251 249 229 52 80 64 86 31 319 64 265 303 258 231 205 177 163 161
277 280 294 300 284 252 311 319 323 40 259 300 132 220 315 276 264 327 68 63 132 119 146 240 270 186 219 45 312 155 79 53 65 86 343 249 166 263 198 212 180 172 166 154 148
263 258 257 242 236 255 317 347 7 157 14 245 234 171 216 250 296 323 8 341 204 85 279 313 232 271 180 102 39 81 71 350 360 9 227 332 30 260 301 278 212 175 168 164 153
238 231 237 234 208 272 215 50 206 214 232 314 190 145 218 162 227 164 356 301 265 84 95 138 322 170 166 198 188 168 155 155 203 196 266 72 237 252 251 291 271 135 141 136 147
207 208 234 232 201 174 100 204 211 208 174 182 25 205 231 219 166 157 206 211 212 184 179 156 286 353 194 198 152 183 187 173 108 114 50 237 288 305 350 343 161 142 138 164 172
173 183 220 181 163 147 134 219 237 215 160 153 196 177 209 204 172 166 195 198 199 192 176 232 319 312 307 88 21 176 160 71 16 184 261 297 270 246 323 269 152 135 160 170 167
147 144 194 168 148 136 216 222 249 236 176 177 211 217 217 189 194 207 214 228 177 153 151 140 110 297 26 214 189 142 205 68 117 144 175 274 264 213 263 193 177 175 176 174 165
148 196 170 157 132 202 207 211 228 205 173 228 177 202 195 187 202 224 219 209 155 153 166 186 150 235 222 287 210 185 198 158 136 225 180 149 272 275 266 202 170 184 176 161 151
155 85 181 159 199 210 237 250 241 178 204 191 216 205 186 182 223 201 188 71 47 163 167 182 181 6 332 4 325 233 217 173 113 99 188 155 253 353 52 154 175 161 168 160 138
129 147 291 190 213 221 203 230 223 350 172 146 142 102 140 195 211 248 205 73 38 66 124 95 170 189 197 205 162 223 194 183 156 146 212 232 288 321 328 193 170 162 158 162 158
133 204 191 188 228 195 183 231 194 193 192 194 185 227 186 199 197 220 192 132 44 357 67 131 213 187 272 264 270 248 242 237 213 213 214 194 224 254 252 209 195 180 168 171 177
146 162 185 153 162 184 178 204 198 193 169 191 180 234 213 210 201 182 147 221 135 12 115 30 222 182 263 271 241 252 247 246 247 239 249 237 255 225 238 157 170 192 171 179 173
182 127 134 167 163 176 199 178 184 148 201 240 183 144 196 203 113 123 107 95 134 164 187 149 161 143 258 325 304 277 226 225 239 211 225 235 247 236 230 210 212 181 165 163 150